[[{"header":{"parameterUnit":"m.s-1","parameterCategory":1,"la1":30.2991,"la2":30.254,"lo1":-89.0895,"lo2":-89.0444,"dy":0.0017,"dx":0.0017,"nx":28,"ny":28,"refTime":"2025-12-22T03:00:00:Z","depth":0,"parameterNumber":2,"parameterNumberName":"U-component_of_WINDS"},"data":[0,0,0,0,0,0,0,0,0,0,0,0,0,0,0,0,0,0,0,0,0,0,0,0,0,0,0,0,0,0,0,0,0,0,0,0,0,0,0,0,0,0,0,0,0,0,0,0,0,0,0,0,0,0,0,0,0,0,-2.2394,-2.2395,0,-2.2432,-2.2432,-2.2433,-2.24,-2.2399,-2.2397,-2.2396,-2.2436,-2.2438,-2.244,0,0,0,0,0,0,0,0,0,0,0,0,0,-2.2295,-2.2297,-2.2394,-2.2395,-2.2395,-2.2432,-2.2432,-2.2433,-2.24,-2.2399,-2.2397,-2.2395,-2.2435,-2.2438,-2.244,0,0,0,0,0,0,0,0,0,0,0,0,0,-2.2336,-2.2298,-2.2394,-2.2383,-2.2383,-2.2432,-2.2433,-2.2433,-2.2401,-2.2399,-2.2396,-2.2395,-2.2434,-2.2437,-2.2441,-2.2503,0,0,-2.2451,-2.2453,0,0,0,0,0,0,0,0,-2.2334,-2.234,-2.2384,-2.2384,-2.2383,-2.2409,-2.2412,-2.2457,-2.2401,-2.2394,-2.2396,-2.2394,-2.2429,-2.2432,-2.2444,-2.2505,-2.2506,-2.2452,-2.2454,-2.2455,-2.2456,0,0,0,0,0,0,0,-2.2331,-2.2338,-2.2409,-2.2385,-2.2384,-2.2377,-2.2381,-2.242,-2.2422,-2.2394,-2.2392,-2.2397,-2.2428,-2.2441,-2.2445,-2.2507,-2.2452,-2.2455,-2.2457,-2.2458,-2.2623,-2.2625,0,0,0,0,0,0,-2.2329,-2.2336,-2.2408,-2.241,-2.2353,-2.238,-2.2384,-2.2403,-2.2422,-2.2422,-2.2399,-2.2395,-2.2436,-2.2441,-2.2446,-2.252,-2.2455,-2.2458,-2.246,-2.262,-2.2623,-2.2626,0,0,0,0,0,0,-2.2327,-2.2336,-2.2406,-2.2372,-2.2381,-2.2384,-2.2405,-2.2405,-2.2417,-2.2425,-2.2425,-2.2411,-2.2434,-2.2441,-2.2489,-2.2521,-2.246,-2.2463,-2.2618,-2.2621,-2.2624,-2.267,0,0,0,0,0,0,-2.2324,-2.2335,-2.2358,-2.2373,-2.2383,-2.2449,-2.2407,-2.2407,-2.2423,-2.2419,-2.2437,-2.2438,-2.2433,-2.2484,-2.2493,-2.2525,-2.2466,-2.2615,-2.2619,-2.2623,-2.2665,-2.2674,-2.2682,0,0,0,0,0,-2.2321,-2.2369,-2.236,-2.2369,-2.2412,-2.245,-2.2456,-2.245,-2.2426,-2.245,-2.2455,-2.2437,-2.2517,-2.2489,-2.2499,-2.2533,-2.2613,-2.2618,-2.2623,-2.2662,-2.2673,-2.2682,0,0,0,0,0,0,-2.2358,-2.2371,-2.236,-2.2415,-2.2432,-2.2445,-2.2474,-2.2461,-2.2485,-2.248,-2.2472,-2.2476,-2.2527,-2.2535,-2.2504,-2.2595,-2.2561,-2.2568,-2.2587,-2.2598,-2.2606,-2.2602,-2.2469,0,0,0,0,0,-2.2372,-2.2403,-2.2413,-2.246,-2.2469,-2.247,-2.2487,-2.2481,-2.2498,-2.2505,-2.2514,-2.2531,-2.2561,-2.258,-2.2607,-2.2667,-2.2671,-2.2695,-2.2703,-2.271,-2.2716,-2.2749,-2.2761,-2.2642,-2.2642,-2.2642,0,0,-2.2402,-2.2414,-2.2433,-2.2468,-2.248,-2.2512,-2.2476,-2.2511,-2.2535,-2.251,-2.2556,-2.2564,-2.2583,-2.2638,-2.2662,-2.2646,-2.275,-2.2717,-2.2722,-2.2724,-2.2756,-2.2767,-2.2777,-2.2646,-2.2645,-2.2645,0,0,-2.2473,-2.2485,-2.2526,-2.2539,-2.2559,-2.256,-2.257,-2.2585,-2.2589,-2.2635,-2.2618,-2.2647,-2.2697,-2.2712,-2.2726,-2.2805,-2.279,-2.2815,-2.2857,-2.289,-2.2899,-2.2908,-2.2936,-2.2946,-2.2821,-2.2821,-2.2821,0,-2.2508,-2.2555,-2.2548,-2.2585,-2.2601,-2.2581,-2.2623,-2.2637,-2.2664,-2.2676,-2.2658,-2.2721,-2.2733,-2.2791,-2.2811,-2.2823,-2.2835,-2.2812,-2.2899,-2.2907,-2.2914,-2.2941,-2.2952,-2.2824,-2.2824,-2.2823,-2.2823,0,-2.2597,-2.263,-2.2661,-2.2689,-2.2709,-2.2748,-2.2748,-2.2769,-2.2762,-2.2766,-2.2814,-2.2828,-2.2857,-2.2871,-2.2865,-2.2929,-2.2919,-2.29,-2.2865,-2.2928,-2.2954,-2.2964,-2.2828,-2.2827,-2.2826,-2.2825,0,0,-2.269,-2.2715,-2.2726,-2.2739,-2.276,-2.2786,-2.2825,-2.2855,-2.2873,-2.2894,-2.2927,-2.2971,-2.2954,-2.297,-2.2965,-2.2994,-2.3057,-2.2972,-2.2972,-2.2987,-2.313,-2.3143,-2.3156,-2.3048,-2.305,-2.3051,-2.3128,0,-2.2762,-2.2829,-2.2825,-2.2889,-2.292,-2.2903,-2.2937,-2.2954,-2.2959,-2.2987,-2.2992,-2.3024,-2.2999,-2.3009,-2.3037,-2.3043,-2.3085,-2.3038,-2.3078,-2.308,-2.3073,-2.3169,-2.3183,-2.3255,-2.3138,-2.314,-2.3141,0,-2.2853,-2.2878,-2.2944,-2.2962,-2.2975,-2.3006,-2.3034,-2.306,-2.308,-2.3082,-2.3101,-2.3092,-2.3133,-2.3099,-2.3156,-2.3123,-2.314,-2.3147,-2.3149,-2.3152,-2.3113,-2.3174,-2.3277,-2.3288,-2.3157,-2.3155,-2.3154,0,-2.2914,-2.2964,-2.301,-2.3022,-2.3044,-2.3066,-2.3077,-2.3095,-2.3113,-2.3138,-2.315,-2.318,-2.3195,-2.3219,-2.3219,-2.3194,-2.3276,-2.3242,-2.3279,-2.3279,-2.3295,-2.3294,-2.3403,-2.3308,-2.3308,-2.3307,-2.3307,0,-2.2994,-2.3035,-2.3038,-2.3066,-2.3113,-2.3109,-2.3156,-2.3164,-2.3181,-2.3211,-2.3199,-2.3228,-2.3226,-2.3256,-2.3256,-2.3303,-2.331,-2.3313,-2.3313,-2.3314,-2.3314,-2.3324,-2.3319,-2.331,-2.331,-2.3309,-2.3309,0,-2.3069,-2.3072,-2.3122,-2.314,-2.3145,-2.3179,-2.3194,-2.3222,-2.3227,-2.3266,-2.3275,-2.3282,-2.3317,-2.3319,-2.3359,-2.336,-2.3417,-2.3411,-2.341,-2.3408,-2.3445,-2.3441,-2.3563,-2.3579,-2.3475,-2.3476,-2.3476,0,-2.3119,-2.315,-2.3172,-2.3192,-2.3204,-2.3235,-2.3255,-2.3253,-2.3274,-2.3301,-2.3325,-2.3359,-2.3385,-2.3442,-2.3451,-2.3482,-2.3477,-2.3518,-2.3481,-2.3482,-2.3477,-2.3475,-2.3478,-2.3524,-2.3525,-2.3526,-2.3527,0,-2.3207,-2.3208,-2.3236,-2.3266,-2.3289,-2.3313,-2.3334,-2.3351,-2.3353,-2.3377,-2.3412,-2.3433,-2.3475,-2.3508,-2.3539,-2.355,-2.3539,-2.3539,-2.3549,-2.355,-2.3548,-2.3549,-2.3428,-2.3535,-2.3535,-2.3534,-2.3533,-2.3533,-2.3271,-2.3299,-2.3319,-2.3351,-2.3368,-2.3389,-2.3416,-2.3425,-2.3454,-2.3488,-2.3486,-2.3525,-2.3546,-2.3586,-2.3601,-2.3632,-2.3618,-2.3633,-2.3636,-2.364,-2.3644,-2.3544,-2.3638,-2.3637,-2.3637,-2.3637,-2.3637,0,-2.3358,-2.3371,-2.3401,-2.3432,-2.3458,-2.3447,-2.3471,-2.3493,-2.3528,-2.3548,-2.3575,-2.3617,-2.365,-2.3663,-2.3696,-2.3719,-2.3714,-2.3727,-2.3725,-2.3728,-2.3654,-2.3642,-2.373,-2.373,-2.373,-2.373,-2.373,-2.373,-2.3407,-2.3453,-2.3457,-2.3513,-2.3525,-2.3564,-2.3578,-2.3598,-2.3615,-2.3662,-2.3689,-2.3698,-2.3716,-2.375,-2.3781,-2.3784,-2.3796,-2.3811,-2.3812,-2.3742,-2.3733,-2.3724,-2.3712,-2.3814,-2.3814,-2.3883,-2.3884,-2.3884]},{"header":{"parameterUnit":"m.s-1","parameterCategory":1,"la1":30.2991,"la2":30.254,"lo1":-89.0895,"lo2":-89.0444,"dy":0.0017,"dx":0.0017,"nx":28,"ny":28,"refTime":"2025-12-22T03:00:00:Z","depth":0,"parameterNumber":3,"parameterNumberName":"V-component_of_WINDS"},"data":[0,0,0,0,0,0,0,0,0,0,0,0,0,0,0,0,0,0,0,0,0,0,0,0,0,0,0,0,0,0,0,0,0,0,0,0,0,0,0,0,0,0,0,0,0,0,0,0,0,0,0,0,0,0,0,0,0,0,0.8844,0.8844,0,0.8807,0.8807,0.8806,0.8871,0.8873,0.8876,0.8878,0.8837,0.8834,0.8831,0,0,0,0,0,0,0,0,0,0,0,0,0,0.897,0.8967,0.8844,0.8844,0.8843,0.8807,0.8807,0.8806,0.8871,0.8873,0.8876,0.8879,0.8838,0.8835,0.8831,0,0,0,0,0,0,0,0,0,0,0,0,0,0.8922,0.8966,0.8844,0.8871,0.8873,0.8807,0.8807,0.8806,0.887,0.8873,0.8877,0.888,0.8839,0.8835,0.883,0.8736,0,0,0.8816,0.8814,0,0,0,0,0,0,0,0,0.8925,0.8917,0.8868,0.8869,0.8872,0.8847,0.8836,0.8782,0.8869,0.8871,0.8878,0.8881,0.8838,0.8833,0.8819,0.8734,0.8732,0.8816,0.8813,0.8811,0.8809,0,0,0,0,0,0,0,0.8928,0.8919,0.883,0.8867,0.8869,0.8885,0.8882,0.8826,0.8836,0.8871,0.8876,0.8871,0.8839,0.8823,0.8819,0.8731,0.8816,0.8812,0.8809,0.8807,0.8568,0.8564,0,0,0,0,0,0,0.8928,0.8922,0.8831,0.8829,0.8907,0.888,0.8876,0.8852,0.8837,0.8838,0.8868,0.8874,0.883,0.8824,0.8818,0.8706,0.8811,0.8806,0.8804,0.8571,0.8567,0.8563,0,0,0,0,0,0,0.8931,0.892,0.8832,0.8876,0.8867,0.8874,0.8846,0.8849,0.8833,0.8835,0.8837,0.885,0.8832,0.8824,0.8756,0.8706,0.8804,0.88,0.8576,0.857,0.8565,0.8483,0,0,0,0,0,0,0.8934,0.892,0.8884,0.8875,0.8864,0.8771,0.8843,0.8846,0.8825,0.8833,0.8818,0.8819,0.8834,0.8763,0.8751,0.8701,0.8796,0.858,0.8573,0.8567,0.849,0.8475,0.8463,0,0,0,0,0,0.8938,0.8862,0.8882,0.8871,0.8819,0.8768,0.8762,0.8781,0.8821,0.8785,0.8786,0.882,0.8713,0.8755,0.8743,0.8691,0.8583,0.8575,0.8567,0.8496,0.8478,0.8463,0,0,0,0,0,0,0.8863,0.8861,0.8883,0.8802,0.8785,0.8779,0.8734,0.8762,0.8732,0.874,0.8765,0.8761,0.8688,0.8683,0.8729,0.8599,0.8655,0.8644,0.8605,0.8588,0.8574,0.8577,0.8793,0,0,0,0,0,0.8838,0.8797,0.8797,0.8725,0.8715,0.8726,0.8705,0.8721,0.8704,0.8697,0.8694,0.8675,0.8638,0.8613,0.8579,0.849,0.8488,0.8448,0.8434,0.8423,0.8413,0.8367,0.8349,0.8537,0.8537,0.8537,0,0,0.8783,0.8777,0.8749,0.871,0.8698,0.8655,0.872,0.8671,0.8639,0.869,0.8626,0.8622,0.8604,0.8525,0.849,0.8518,0.8361,0.8413,0.8404,0.84,0.8357,0.8339,0.8323,0.8532,0.8533,0.8533,0,0,0.8663,0.8654,0.8593,0.8581,0.8564,0.8572,0.8558,0.8548,0.8548,0.8484,0.8522,0.8484,0.8419,0.8405,0.8389,0.8265,0.8294,0.8253,0.8181,0.8135,0.8121,0.8108,0.8063,0.8047,0.8243,0.8243,0.8243,0,0.8597,0.8534,0.8558,0.8508,0.8489,0.8534,0.8473,0.846,0.8432,0.8418,0.845,0.8371,0.8361,0.828,0.825,0.8236,0.822,0.8254,0.8121,0.8108,0.8096,0.8054,0.8038,0.8238,0.8238,0.8239,0.8239,0,0.8455,0.8411,0.8364,0.8337,0.8313,0.8257,0.8273,0.8246,0.8265,0.827,0.8204,0.8195,0.816,0.8142,0.816,0.8064,0.8082,0.8117,0.8174,0.8073,0.8034,0.8018,0.8231,0.8233,0.8234,0.8235,0,0,0.8284,0.8273,0.8255,0.8244,0.8229,0.8195,0.8142,0.8109,0.8085,0.8065,0.8021,0.7966,0.7998,0.798,0.7997,0.7957,0.7859,0.7997,0.7997,0.7972,0.7753,0.7727,0.7708,0.7879,0.7877,0.7874,0.7755,0,0.8164,0.8073,0.8094,0.8003,0.7963,0.8006,0.796,0.7946,0.7949,0.7915,0.7919,0.7879,0.7926,0.7915,0.7877,0.7879,0.7816,0.7888,0.7838,0.7836,0.7841,0.7687,0.7659,0.7546,0.774,0.7737,0.7735,0,0.8012,0.7987,0.7893,0.7886,0.787,0.7828,0.78,0.7767,0.7752,0.7757,0.7738,0.7763,0.771,0.7768,0.7695,0.7744,0.7725,0.7723,0.7719,0.7714,0.7779,0.7678,0.7511,0.7494,0.7711,0.7713,0.7715,0,0.7897,0.784,0.7777,0.7766,0.7756,0.7725,0.772,0.7708,0.7687,0.7663,0.7649,0.7618,0.7601,0.7577,0.7593,0.7634,0.7517,0.7577,0.752,0.7519,0.7493,0.7494,0.732,0.7481,0.7481,0.7482,0.7482,0,0.776,0.7701,0.7725,0.7686,0.7621,0.7646,0.7581,0.758,0.757,0.7531,0.7567,0.7529,0.7553,0.7518,0.753,0.7468,0.746,0.7463,0.7467,0.7459,0.7459,0.7446,0.7454,0.7477,0.7478,0.7479,0.748,0,0.762,0.7634,0.7568,0.7565,0.7563,0.7515,0.7512,0.7476,0.7483,0.7433,0.7423,0.7433,0.7394,0.7408,0.7365,0.7374,0.7295,0.7309,0.73,0.7303,0.7246,0.7251,0.7057,0.7032,0.721,0.7208,0.7207,0,0.7532,0.7488,0.748,0.7458,0.745,0.7413,0.7392,0.7415,0.7392,0.7372,0.7338,0.7302,0.7275,0.721,0.7213,0.7181,0.7194,0.7129,0.7189,0.7184,0.7193,0.7195,0.7191,0.7116,0.7114,0.7112,0.7111,0,0.7374,0.7383,0.7353,0.7325,0.7299,0.7278,0.726,0.7239,0.7261,0.7233,0.7194,0.7173,0.713,0.7094,0.7066,0.706,0.7088,0.7092,0.7077,0.7069,0.7065,0.7066,0.7266,0.7096,0.7097,0.7099,0.7099,0.71,0.7257,0.722,0.721,0.7174,0.7164,0.7146,0.7112,0.7115,0.7083,0.7051,0.7067,0.7021,0.7008,0.6973,0.6963,0.6928,0.6953,0.6932,0.6926,0.692,0.6913,0.7072,0.6923,0.6923,0.6924,0.6924,0.6924,0,0.7101,0.7097,0.7064,0.7038,0.7011,0.7042,0.7024,0.6999,0.6958,0.6945,0.6917,0.6872,0.6838,0.6839,0.6807,0.6778,0.6791,0.6769,0.6771,0.6769,0.6892,0.6908,0.676,0.676,0.676,0.676,0.676,0.676,0.7016,0.6956,0.6964,0.6898,0.6895,0.6851,0.6838,0.6822,0.6811,0.676,0.6732,0.6733,0.6725,0.6693,0.6663,0.6664,0.6651,0.6624,0.663,0.6744,0.6761,0.6776,0.6791,0.6621,0.662,0.651,0.6509,0.6508]}]]